Terminal Aerodrome Forecast
Issued by NWS

Home | Current Version | Previous Version | Text Only | Print | Product List | Glossary On
Versions: 1 2 3 4 5 6 7 8 9 10 11 12 13 14 15 16 17 18 19 20 21 22 23 24 25 26 27 28
000
FTUS45 KLKN 020138 AAA
TAFTPH
TAF AMD
KTPH 020138Z 0202/0224 04012KT P6SM -SHRA OVC080
     FM020300 15010KT P6SM VCSH OVC080
     FM021800 19010KT P6SM VCTS OVC080CB=

USA.gov is the U.S. government's official web portal to all federal, state and local government web resources and services.